Hourly Weather Bolshie Pady

Today, 20 June, Sunday

Time Temperature Precipitation Wind Pressure Humidity
00:00 +18°C° 0 mm 1 mps 757 mmHg 80%
01:00 +16°C° 0 mm 1 mps 757 mmHg 82%
02:00 +16°C° 0 mm 1 mps 757 mmHg 83%
03:00 +16°C° 0 mm 1 mps 757 mmHg 85%
04:00 +16°C° 0 mm 1 mps 757 mmHg 83%
05:00 +18°C° 0 mm 1 mps 757 mmHg 82%
06:00 +19°C° 0 mm 1 mps 757 mmHg 81%
07:00 +20°C° 0 mm 2 mps 757 mmHg 76%
08:00 +23°C° 0 mm 2 mps 757 mmHg 70%
09:00 +24°C° 0 mm 2 mps 757 mmHg 64%
10:00 +25°C° 0 mm 2 mps 756 mmHg 60%
11:00 +26°C° 0 mm 3 mps 756 mmHg 56%
12:00 +27°C° 0 mm 3 mps 756 mmHg 52%
13:00 +28°C° 0 mm 3 mps 756 mmHg 52%
14:00 +28°C° 0 mm 3 mps 756 mmHg 51%
15:00 +29°C° 0 mm 3 mps 755 mmHg 50%
16:00 +28°C° 0 mm 3 mps 755 mmHg 55%
17:00 +28°C° 0 mm 2 mps 755 mmHg 60%
18:00 +28°C° 0 mm 2 mps 755 mmHg 65%
19:00 +26°C° 0 mm 2 mps 755 mmHg 69%
20:00 +24°C° 0 mm 2 mps 755 mmHg 74%
21:00 +21°C° 0 mm 2 mps 755 mmHg 78%
22:00 +21°C° 0 mm 2 mps 755 mmHg 79%
23:00 +20°C° 0 mm 2 mps 755 mmHg 80%

Tomorrow, 21 June, Monday

Time Temperature Precipitation Wind Pressure Humidity
00:00 +19°C° 0 mm 2 mps 754 mmHg 81%
01:00 +19°C° 0 mm 2 mps 754 mmHg 82%
02:00 +19°C° 0 mm 2 mps 754 mmHg 83%
03:00 +18°C° 0 mm 2 mps 754 mmHg 83%
04:00 +19°C° 0 mm 2 mps 755 mmHg 83%
05:00 +19°C° 0 mm 2 mps 755 mmHg 83%
06:00 +20°C° 0 mm 2 mps 755 mmHg 83%
07:00 +21°C° 0 mm 2 mps 755 mmHg 77%
08:00 +24°C° 0 mm 3 mps 755 mmHg 71%
09:00 +26°C° 0 mm 3 mps 755 mmHg 65%
10:00 +27°C° 0 mm 3 mps 755 mmHg 61%
11:00 +28°C° 0 mm 3 mps 755 mmHg 58%
12:00 +29°C° 0 mm 4 mps 755 mmHg 55%
13:00 +29°C° 0 mm 4 mps 755 mmHg 55%
14:00 +30°C° 0 mm 4 mps 755 mmHg 55%
15:00 +30°C° 0 mm 4 mps 754 mmHg 54%
16:00 +30°C° 0 mm 3 mps 754 mmHg 58%
17:00 +30°C° 0 mm 3 mps 754 mmHg 62%
18:00 +29°C° 0 mm 2 mps 754 mmHg 66%
19:00 +27°C° 0 mm 3 mps 754 mmHg 71%
20:00 +26°C° 0 mm 3 mps 754 mmHg 76%
21:00 +24°C° 0 mm 3 mps 754 mmHg 80%
22:00 +22°C° 0 mm 3 mps 754 mmHg 80%
23:00 +21°C° 0 mm 3 mps 754 mmHg 80%

Day after tomorrow, 22 June, Tuesday

Time Temperature Precipitation Wind Pressure Humidity
00:00 +21°C° 0 mm 3 mps 754 mmHg 81%
01:00 +20°C° 0 mm 3 mps 754 mmHg 82%
02:00 +20°C° 0 mm 2 mps 754 mmHg 83%
03:00 +19°C° 0 mm 2 mps 754 mmHg 84%
04:00 +20°C° 0 mm 2 mps 755 mmHg 84%
05:00 +21°C° 0 mm 2 mps 755 mmHg 83%
06:00 +21°C° 0 mm 2 mps 755 mmHg 83%
07:00 +24°C° 0 mm 2 mps 755 mmHg 77%
08:00 +26°C° 0 mm 3 mps 755 mmHg 71%
09:00 +28°C° 0 mm 3 mps 755 mmHg 65%
10:00 +29°C° 0 mm 3 mps 755 mmHg 60%
11:00 +30°C° 0 mm 3 mps 755 mmHg 55%
12:00 +31°C° 0 mm 3 mps 755 mmHg 50%
13:00 +31°C° 0 mm 3 mps 755 mmHg 49%
14:00 +33°C° 0 mm 3 mps 755 mmHg 47%
15:00 +33°C° 0 mm 3 mps 755 mmHg 46%
16:00 +31°C° 0 mm 2 mps 754 mmHg 51%
17:00 +31°C° 0 mm 2 mps 754 mmHg 56%
18:00 +30°C° 0 mm 2 mps 754 mmHg 62%
19:00 +28°C° 0 mm 2 mps 754 mmHg 65%
20:00 +27°C° 0 mm 2 mps 754 mmHg 69%
21:00 +25°C° 0 mm 2 mps 754 mmHg 72%
22:00 +24°C° 0 mm 2 mps 754 mmHg 74%
23:00 +23°C° 0 mm 2 mps 754 mmHg 76%

23 June, Wednesday

Time Temperature Precipitation Wind Pressure Humidity
00:00 +22°C° 0 mm 3 mps 754 mmHg 77%
01:00 +21°C° 0 mm 3 mps 754 mmHg 79%
02:00 +21°C° 0 mm 3 mps 754 mmHg 81%
03:00 +20°C° 0 mm 3 mps 754 mmHg 82%
04:00 +21°C° 0 mm 3 mps 754 mmHg 82%
05:00 +22°C° 0 mm 3 mps 754 mmHg 82%
06:00 +22°C° 0 mm 3 mps 754 mmHg 82%
07:00 +25°C° 0 mm 3 mps 754 mmHg 76%
08:00 +27°C° 0 mm 3 mps 754 mmHg 69%
09:00 +29°C° 0 mm 4 mps 754 mmHg 62%
10:00 +30°C° 0 mm 4 mps 754 mmHg 58%
11:00 +31°C° 0 mm 3 mps 754 mmHg 54%
12:00 +33°C° 0 mm 3 mps 754 mmHg 50%
13:00 +33°C° 0 mm 3 mps 754 mmHg 49%
14:00 +34°C° 0 mm 3 mps 754 mmHg 49%
15:00 +34°C° 0 mm 2 mps 754 mmHg 48%
16:00 +34°C° 0 mm 2 mps 754 mmHg 53%
17:00 +32°C° 0 mm 1 mps 754 mmHg 58%
18:00 +32°C° 0 mm 1 mps 754 mmHg 62%
19:00 +30°C° 0 mm 1 mps 754 mmHg 65%
20:00 +28°C° 0 mm 1 mps 754 mmHg 68%
21:00 +27°C° 0 mm 1 mps 754 mmHg 70%
22:00 +24°C° 0 mm 0 mps 754 mmHg 72%
23:00 +23°C° 0 mm 0 mps 754 mmHg 74%

24 June, Thursday

Time Temperature Precipitation Wind Pressure Humidity
00:00 +23°C° 0 mm 0 mps 754 mmHg 75%
01:00 +22°C° 0 mm 0 mps 754 mmHg 77%
02:00 +24°C° 0 mm 1 mps 754 mmHg 78%
03:00 +24°C° 0 mm 1 mps 754 mmHg 79%
04:00 +24°C° 0 mm 1 mps 754 mmHg 79%
05:00 +25°C° 0 mm 2 mps 754 mmHg 79%
06:00 +25°C° 0 mm 2 mps 754 mmHg 80%
07:00 +27°C° 0 mm 1 mps 754 mmHg 75%
08:00 +28°C° 0 mm 1 mps 754 mmHg 70%
09:00 +30°C° 0 mm 1 mps 754 mmHg 65%
10:00 +31°C° 0 mm 1 mps 754 mmHg 60%
11:00 +32°C° 0 mm 1 mps 754 mmHg 55%
12:00 +33°C° 0 mm 1 mps 754 mmHg 51%
13:00 +33°C° 0 mm 1 mps 754 mmHg 49%
14:00 +34°C° 0 mm 1 mps 754 mmHg 48%
15:00 +35°C° 0 mm 2 mps 754 mmHg 47%
16:00 +34°C° 0 mm 2 mps 753 mmHg 52%
17:00 +34°C° 0 mm 2 mps 753 mmHg 56%
18:00 +32°C° 0 mm 2 mps 753 mmHg 61%
19:00 +31°C° 0 mm 1 mps 753 mmHg 65%
20:00 +29°C° 0 mm 1 mps 753 mmHg 69%
21:00 +27°C° 0 mm 1 mps 753 mmHg 74%
22:00 +26°C° 0 mm 1 mps 753 mmHg 75%
23:00 +26°C° 0 mm 1 mps 753 mmHg 77%

25 June, Friday

Time Temperature Precipitation Wind Pressure Humidity
00:00 +25°C° 0 mm 1 mps 753 mmHg 78%
01:00 +25°C° 0 mm 1 mps 753 mmHg 79%
02:00 +24°C° 0 mm 1 mps 752 mmHg 80%
03:00 +24°C° 0 mm 1 mps 752 mmHg 81%
04:00 +25°C° 0 mm 1 mps 752 mmHg 80%
05:00 +25°C° 0 mm 1 mps 752 mmHg 78%
06:00 +26°C° 0 mm 1 mps 752 mmHg 77%
07:00 +27°C° 0 mm 1 mps 752 mmHg 72%
08:00 +29°C° 0 mm 1 mps 752 mmHg 67%
09:00 +30°C° 0 mm 1 mps 752 mmHg 62%
10:00 +31°C° 0 mm 1 mps 752 mmHg 58%
11:00 +32°C° 0 mm 1 mps 752 mmHg 54%
12:00 +33°C° 0 mm 1 mps 752 mmHg 50%
13:00 +33°C° 0 mm 1 mps 752 mmHg 48%
14:00 +34°C° 0 mm 1 mps 751 mmHg 47%
15:00 +34°C° 0 mm 1 mps 751 mmHg 45%
16:00 +33°C° 0 mm 1 mps 751 mmHg 50%
17:00 +32°C° 0 mm 1 mps 751 mmHg 55%
18:00 +31°C° 0 mm 2 mps 750 mmHg 61%
19:00 +29°C° 0.5 mm 2 mps 750 mmHg 69%
20:00 +27°C° 0.5 mm 3 mps 750 mmHg 77%
21:00 +24°C° 0.5 mm 3 mps 751 mmHg 85%
22:00 +24°C° 0.2 mm 2 mps 750 mmHg 82%
23:00 +24°C° 0.2 mm 2 mps 750 mmHg 78%
Show more